TimeHST,TemperatureF,Dew PointF,Humidity,Sea Level PressureIn,VisibilityMPH,Wind Direction,Wind SpeedMPH,Gust SpeedMPH,PrecipitationIn,Events,Conditions,WindDirDegrees,DateUTC
12:54 AM,64.9,64.9,100,30.08,10.0,ENE,4.6,-,0.09,Rain,Light Rain,60,2014-01-29 10:54:00
1:54 AM,66.0,66.0,100,30.06,10.0,North,6.9,-,0.01,Rain,Light Rain,10,2014-01-29 11:54:00
2:54 AM,68.0,66.0,93,30.03,10.0,NNE,10.4,17.3,0.00,,Clear,20,2014-01-29 12:54:00
3:54 AM,68.0,64.9,90,30.02,10.0,NNE,10.4,16.1,N/A,,Clear,20,2014-01-29 13:54:00
4:54 AM,68.0,68.0,100,30.02,10.0,NNE,11.5,21.9,0.00,,Scattered Clouds,20,2014-01-29 14:54:00
5:43 AM,68.0,68.0,100,30.00,10.0,NNE,17.3,29.9,0.00,Rain,Light Rain,30,2014-01-29 15:43:00
5:47 AM,68.0,68.0,100,30.01,10.0,NNE,12.7,29.9,0.00,Rain,Light Rain,20,2014-01-29 15:47:00
5:54 AM,68.0,68.0,100,30.03,10.0,NNE,18.4,24.2,0.00,Rain,Light Rain,30,2014-01-29 15:54:00
6:04 AM,68.0,66.2,94,30.02,10.0,NNE,19.6,28.8,N/A,,Mostly Cloudy,30,2014-01-29 16:04:00
6:40 AM,68.0,68.0,100,30.03,10.0,NNE,12.7,25.3,0.00,Rain,Light Rain,30,2014-01-29 16:40:00
6:54 AM,69.1,68.0,96,30.05,10.0,NNE,13.8,26.5,0.00,,Overcast,20,2014-01-29 16:54:00
7:24 AM,68.0,68.0,100,30.04,4.0,NNE,17.3,24.2,0.00,Rain,Rain,20,2014-01-29 17:24:00
7:32 AM,68.0,68.0,100,30.04,3.0,NNE,15.0,24.2,0.02,Rain,Rain,20,2014-01-29 17:32:00
7:39 AM,66.2,66.2,100,30.04,3.0,NNE,16.1,24.2,0.04,Rain,Rain,20,2014-01-29 17:39:00
7:42 AM,66.2,66.2,100,30.05,3.0,NNE,15.0,24.2,0.04,Rain,Light Rain,20,2014-01-29 17:42:00
7:49 AM,68.0,68.0,100,30.05,2.0,NNE,12.7,21.9,0.07,Rain,Rain,20,2014-01-29 17:49:00
7:54 AM,68.0,68.0,100,30.07,4.0,NNE,11.5,20.7,0.08,Rain,Light Rain,20,2014-01-29 17:54:00
8:22 AM,68.0,68.0,100,30.07,7.0,NNE,15.0,24.2,0.01,Rain,Light Rain,20,2014-01-29 18:22:00
8:33 AM,68.0,68.0,100,30.08,1.5,North,-9999.0,-,0.01,,Mist,0,2014-01-29 18:33:00
8:35 AM,68.0,68.0,100,30.08,0.8,NE,13.8,25.3,0.01,,Mist,40,2014-01-29 18:35:00
8:42 AM,66.2,66.2,100,30.08,0.5,NNE,11.5,24.2,0.23,Fog-Rain,Heavy Rain,30,2014-01-29 18:42:00
8:50 AM,66.2,66.2,100,30.08,1.0,NNE,13.8,20.7,0.39,Rain,Heavy Rain,20,2014-01-29 18:50:00
8:54 AM,66.0,66.0,100,30.10,1.2,North,15.0,21.9,0.41,Rain,Heavy Rain,10,2014-01-29 18:54:00
9:08 AM,66.2,66.2,100,30.08,1.5,North,11.5,20.7,0.13,Rain,Heavy Rain,10,2014-01-29 19:08:00
9:12 AM,66.2,66.2,100,30.08,2.0,NNE,11.5,19.6,0.14,Rain,Rain,20,2014-01-29 19:12:00
9:20 AM,66.2,66.2,100,30.09,3.0,NNE,11.5,19.6,0.15,Rain,Heavy Rain,20,2014-01-29 19:20:00
9:27 AM,66.2,66.2,100,30.08,2.5,North,9.2,19.6,0.19,Rain,Rain,10,2014-01-29 19:27:00
9:35 AM,68.0,68.0,100,30.08,10.0,North,16.1,21.9,0.19,Rain,Light Rain,360,2014-01-29 19:35:00
9:54 AM,68.0,68.0,100,30.08,3.0,North,15.0,21.9,0.22,Rain,Rain,10,2014-01-29 19:54:00
10:01 AM,69.8,69.8,100,30.07,3.0,NNE,12.7,21.9,0.02,Rain,Rain,20,2014-01-29 20:01:00
10:54 AM,69.1,69.1,100,30.06,4.0,NNE,13.8,24.2,0.05,Rain,Rain,30,2014-01-29 20:54:00
11:20 AM,69.8,69.8,100,30.05,10.0,NE,19.6,25.3,0.03,,Overcast,50,2014-01-29 21:20:00
11:47 AM,69.8,69.8,100,30.03,9.0,NNE,12.7,21.9,0.03,,Mostly Cloudy,30,2014-01-29 21:47:00
11:49 AM,69.8,69.8,100,30.03,9.0,NNE,12.7,21.9,0.03,Rain,Light Rain,30,2014-01-29 21:49:00
11:54 AM,70.0,70.0,100,30.05,9.0,NE,9.2,21.9,0.03,Rain,Light Rain,40,2014-01-29 21:54:00
12:20 PM,73.4,69.8,88,30.02,10.0,ENE,15.0,21.9,0.00,,Mostly Cloudy,60,2014-01-29 22:20:00
12:28 PM,71.6,69.8,94,30.01,10.0,NE,15.0,21.9,0.00,,Partly Cloudy,50,2014-01-29 22:28:00
12:54 PM,72.0,70.0,93,30.00,10.0,NE,19.6,32.2,0.00,,Scattered Clouds,40,2014-01-29 22:54:00
1:08 PM,71.6,69.8,94,29.98,10.0,NE,19.6,31.1,N/A,,Partly Cloudy,50,2014-01-29 23:08:00
1:54 PM,73.0,70.0,90,29.98,10.0,NE,19.6,35.7,N/A,,Partly Cloudy,40,2014-01-29 23:54:00
2:54 PM,71.1,66.0,84,29.99,8.0,NNE,13.8,20.7,0.00,Rain,Light Rain,30,2014-01-30 00:54:00
3:38 PM,69.8,69.8,100,29.97,10.0,North,6.9,-,0.01,,Overcast,360,2014-01-30 01:38:00
3:54 PM,70.0,68.0,93,29.98,10.0,NE,8.1,16.1,0.01,,Mostly Cloudy,40,2014-01-30 01:54:00
4:54 PM,72.0,69.1,91,29.97,10.0,NE,18.4,29.9,N/A,,Partly Cloudy,40,2014-01-30 02:54:00
5:54 PM,71.1,69.1,93,29.99,10.0,NE,12.7,18.4,N/A,,Partly Cloudy,50,2014-01-30 03:54:00
6:54 PM,70.0,68.0,93,30.00,9.0,NE,9.2,19.6,0.00,Rain,Light Rain,40,2014-01-30 04:54:00
7:54 PM,68.0,66.0,93,30.01,10.0,NE,3.5,-,0.02,,Overcast,50,2014-01-30 05:54:00
8:54 PM,66.9,66.0,97,30.02,10.0,Calm,Calm,-,0.01,,Scattered Clouds,0,2014-01-30 06:54:00
9:54 PM,66.9,64.0,90,30.02,10.0,North,8.1,-,N/A,,Clear,10,2014-01-30 07:54:00
10:54 PM,66.9,64.0,90,30.01,10.0,NNE,3.5,-,N/A,,Clear,30,2014-01-30 08:54:00
11:54 PM,66.9,63.0,87,30.01,10.0,NNE,3.5,-,N/A,,Clear,20,2014-01-30 09:54:00